KC5L-11 Weather Reports


time (UTC)temp
C
wind
direction
speed
KPH
gust
KPH
rain 1hr
cm
rain 24hr
cm
rain mn
cm
humidity
%
barometer
mb
20260507060839 19 242 12.9 0.0 0.00 0.00 0.00 1005.8
20260507055703 19 262 14.5 0.0 0.00 0.00 0.00 1005.5
20260507054527 19 249 14.5 0.0 0.00 0.00 0.00 1005.3
20260507053349 19 273 14.5 0.0 0.00 0.00 0.00 1005.4
20260507052211 19 259 16.1 0.0 0.00 0.00 0.00 1005.3
20260507051034 19 290 16.1 0.0 0.00 0.00 0.00 1005.4
20260507045858 19 284 9.7 0.0 0.00 0.00 0.00 1005.2
20260507044721 19 285 22.5 0.0 0.00 0.00 0.00 1005.3
20260507043543 19 243 19.3 0.0 0.00 0.00 0.00 1005.3
20260507042407 19 243 12.9 0.0 0.00 0.00 0.00 1005.2
20260507041230 20 291 9.7 0.0 0.00 0.00 0.00 1004.8
20260507040053 20 270 17.7 0.0 0.00 0.00 0.00 1004.5
20260507034916 20 259 19.3 0.0 0.00 0.00 0.00 1004.6
20260507033739 20 228 8.0 0.0 0.00 0.00 0.00 1004.7
20260507032602 20 297 14.5 0.0 0.00 0.00 0.00 1004.4
20260507031426 20 277 11.3 0.0 0.00 0.00 0.00 1004.2
20260507030248 20 271 9.7 0.0 0.00 0.00 0.00 1003.9
20260507025111 20 278 17.7 0.0 0.00 0.00 0.00 1003.8
20260507023934 20 246 17.7 0.0 0.00 0.00 0.00 1003.5
20260507022758 21 260 12.9 0.0 0.00 0.00 0.00 1003.4
20260507021620 21 270 14.5 0.0 0.00 0.00 0.00 1003.1
20260507020443 21 270 20.9 0.0 0.00 0.00 0.00 1003.0
20260507015307 22 242 20.9 0.0 0.00 0.00 0.00 1002.4
20260507014128 22 256 12.9 0.0 0.00 0.00 0.00 1002.2
20260507012952 23 280 14.5 0.0 0.00 0.00 0.00 1001.9
20260507011815 23 283 14.5 0.0 0.00 0.00 0.00 1001.7
20260507010638 24 255 9.7 0.0 0.00 0.00 0.00 1001.5
20260507005501 25 226 12.9 0.0 0.00 0.00 0.00 1001.3
20260507003147 27 285 24.1 0.0 0.00 0.00 0.00 1000.8
20260507002010 27 250 22.5 0.0 0.00 0.00 0.00 1000.5
20260507000833 28 236 17.7 0.0 0.00 0.00 0.00 1000.4
20260506235656 29 224 20.9 0.0 0.00 0.00 0.00 1000.0
20260506234519 30 301 11.3 0.0 0.00 0.00 0.00 999.8
20260506233341 30 307 14.5 0.0 0.00 0.00 0.00 999.8
20260506232205 31 305 11.3 0.0 0.00 0.00 0.00 999.8
20260506231028 31 314 12.9 0.0 0.00 0.00 0.00 999.7
20260506225851 31 298 16.1 0.0 0.00 0.00 0.00 999.7
20260506224714 31 284 4.8 0.0 0.00 0.00 0.00 999.6
20260506223537 32 280 12.9 0.0 0.00 0.00 0.00 999.6
20260506222400 32 308 14.5 0.0 0.00 0.00 0.00 999.3
20260506221222 32 281 9.7 0.0 0.00 0.00 0.00 999.4
20260506220046 32 278 11.3 0.0 0.00 0.00 0.00 999.4
20260506214908 32 266 4.8 0.0 0.00 0.00 0.00 999.5
20260506213731 32 291 9.7 0.0 0.00 0.00 0.00 999.6
20260506212555 31 240 11.3 0.0 0.00 0.00 0.00 999.6
20260506211418 31 257 8.0 0.0 0.00 0.00 0.00 999.7
20260506210240 31 281 11.3 0.0 0.00 0.00 0.00 999.8
20260506205103 31 260 11.3 0.0 0.00 0.00 0.00 1000.0
20260506203927 30 354 4.8 0.0 0.00 0.00 0.00 1000.1
20260506202749 31 271 4.8 0.0 0.00 0.00 0.00 1000.2
20260506200435 31 281 4.8 0.0 0.00 0.00 0.00 1000.3
20260506195258 31 259 4.8 0.0 0.00 0.00 0.00 1000.5
20260506194122 31 291 9.7 0.0 0.00 0.00 0.00 1000.7
20260506192944 31 226 4.8 0.0 0.00 0.00 0.00 1000.7
20260506191807 31 229 6.4 0.0 0.00 0.00 0.00 1001.0
20260506190631 31 285 0.0 0.0 0.00 0.00 0.00 1001.0
20260506185454 30 308 4.8 0.0 0.00 0.00 0.00 1001.1
20260506184317 30 332 0.0 0.0 0.00 0.00 0.00 1001.3
20260506183140 29 288 6.4 0.0 0.00 0.00 0.00 1001.3
20260506182003 29 238 0.0 0.0 0.00 0.00 0.00 1001.4
20260506175649 30 236 6.4 0.0 0.00 0.00 0.00 1001.7
20260506174513 30 235 9.7 0.0 0.00 0.00 0.00 1001.8
20260506173335 29 249 8.0 0.0 0.00 0.00 0.00 1001.8
20260506172158 29 180 6.4 0.0 0.00 0.00 0.00 1001.8
20260506171022 29 217 0.0 0.0 0.00 0.00 0.00 1001.8
20260506165844 29 219 4.8 0.0 0.00 0.00 0.00 1001.8
20260506164708 28 307 0.0 0.0 0.00 0.00 0.00 1001.7
20260506163531 28 284 0.0 0.0 0.00 0.00 0.00 1001.7
20260506161217 28 42 0.0 0.0 0.00 0.00 0.00 1001.6
20260506160040 27 42 0.0 0.0 0.00 0.00 0.00 1001.4
20260506154903 27 56 4.8 0.0 0.00 0.00 0.00 1001.3
20260506153726 27 41 0.0 0.0 0.00 0.00 0.00 1001.1
20260506152549 26 39 0.0 0.0 0.00 0.00 0.00 1001.0
20260506151412 26 35 0.0 0.0 0.00 0.00 0.00 1000.8
20260506150235 26 325 4.8 0.0 0.00 0.00 0.00 1000.6
20260506145058 26 325 9.7 0.0 0.00 0.00 0.00 1000.3
20260506143921 26 11 0.0 0.0 0.00 0.00 0.00 1000.2
20260506142744 25 28 6.4 0.0 0.00 0.00 0.00 1000.0
20260506141607 25 3 4.8 0.0 0.00 0.00 0.00 1000.0
20260506140430 25 4 12.9 0.0 0.00 0.00 0.00 999.9
20260506135253 25 17 0.0 0.0 0.00 0.00 0.00 999.8
20260506134116 24 11 6.4 0.0 0.00 0.00 0.00 999.8
20260506132939 24 35 0.0 0.0 0.00 0.00 0.00 999.8
20260506131801 24 35 8.0 0.0 0.00 0.00 0.00 999.7
20260506130626 24 359 0.0 0.0 0.00 0.00 0.00 1009.3
20260506125448 23 342 6.4 0.0 0.00 0.00 0.00 999.6
20260506124310 23 349 4.8 0.0 0.00 0.00 0.00 999.6
20260506123134 23 31 0.0 0.0 0.00 0.00 0.00 999.7
20260506121956 23 31 0.0 0.0 0.00 0.00 0.00 999.7
20260506120820 23 31 0.0 0.0 0.00 0.00 0.00 999.6
20260506115642 23 31 0.0 0.0 0.00 0.00 0.00 999.6
20260506114505 23 31 0.0 0.0 0.00 0.00 0.00 999.6
20260506113330 23 31 0.0 0.0 0.00 0.00 0.00 999.4
20260506112152 23 31 0.0 0.0 0.00 0.00 0.00 999.4
20260506111015 23 31 0.0 0.0 0.00 0.00 0.00 999.4
20260506105838 23 340 0.0 0.0 0.00 0.00 0.00 999.4
20260506104701 23 25 0.0 0.0 0.00 0.00 0.00 999.2
20260506102348 -4 354 9.7 0.0 0.00 0.00 0.00 999.3
20260506101210 24 359 4.8 0.0 0.00 0.00 0.00 999.3
20260506100032 24 345 6.4 0.0 0.00 0.00 0.00 999.3
20260506094855 24 311 9.7 0.0 0.00 0.00 0.00 999.2
20260506092542 24 359 11.3 0.0 0.00 0.00 0.00 999.3
20260506091406 24 24 4.8 0.0 0.00 0.00 0.00 999.5
20260506090228 24 32 3.2 0.0 0.00 0.00 0.00 999.5
20260506085051 24 25 8.0 0.0 0.00 0.00 0.00 999.5
20260506083915 25 44 6.4 0.0 0.00 0.00 0.00 999.4
20260506082738 25 13 8.0 0.0 0.00 0.00 0.00 999.5
20260506081601 25 346 8.0 0.0 0.00 0.00 0.00 999.5
20260506080423 25 359 9.7 0.0 0.00 0.00 0.00 999.6
20260506072933 25 24 6.4 0.0 0.00 0.00 0.00 999.4
20260506071756 25 24 4.8 0.0 0.00 0.00 0.00 999.5
20260506070618 25 34 6.4 0.0 0.00 0.00 0.00 999.5
20260506061950 25 4 14.5 0.0 0.00 0.00 0.00 999.8